Location: Salluit
(62.2046°N, 75.6437°W)
Time: 02:37:24
(UTC-04:00)

SL-21 R/B - Visible Passes

Search period start: 29 July 2014 00:00
Search period end: 08 August 2014 00:00
Orbit: 302 x 343 km, 78.9° (Epoch: 28 July)

Date Brightness Start Highest point End Pass type
(mag) Time Alt. Az. Time Alt. Az. Time Alt. Az.
29 Jul 6.1 01:15:57 10° SE 01:17:51 17° E 01:19:44 10° NE visible
29 Jul 4.3 02:46:53 10° SW 02:49:40 55° WNW 02:52:27 10° NNE visible
30 Jul 5.2 01:32:10 12° SSE 01:34:19 29° ESE 01:36:49 10° NE visible
30 Jul 5.3 03:03:51 10° WSW 03:06:25 30° WNW 03:08:58 10° N visible
31 Jul 4.2 01:48:33 14° S 01:50:47 55° ESE 01:53:32 10° NNE visible
01 Aug 6.3 00:34:08 10° SE 00:35:32 13° E 00:36:55 10° ENE visible
01 Aug 3.9 02:04:49 13° SSW 02:07:13 74° WNW 02:10:00 10° NNE visible
02 Aug 5.6 00:49:57 14° SE 00:51:40 22° E 00:53:55 10° NE visible
02 Aug 4.9 02:20:58 10° SW 02:23:37 38° WNW 02:26:16 10° NNE visible
03 Aug 4.6 01:05:59 17° S 01:07:46 40° ESE 01:10:25 10° NE visible
03 Aug 5.8 02:37:40 10° WSW 02:39:59 23° NW 02:42:17 10° N visible
04 Aug 3.8 01:21:54 18° SSW 01:23:51 81° ESE 01:26:38 10° NNE visible
04 Aug 6.5 02:54:35 10° W 02:56:19 15° NW 02:58:03 10° N visible
05 Aug 5.9 00:06:42 13° SE 00:08:06 17° E 00:10:00 10° NE visible
05 Aug 4.4 01:37:41 14° SW 01:39:54 51° WNW 01:42:37 10° NNE visible
05 Aug 6.8 03:12:10 10° NW 03:12:37 10° NW 03:13:04 10° NNW visible
06 Aug 5.0 00:22:23 18° SSE 00:23:52 29° ESE 00:26:19 10° NE visible
06 Aug 5.5 01:53:27 10° WSW 01:55:55 29° NW 01:58:23 10° N visible
07 Aug 4.0 00:37:56 20° S 00:39:36 56° ESE 00:42:18 10° NNE visible
07 Aug 6.3 02:09:53 10° W 02:11:54 18° NW 02:13:55 10° N visible
07 Aug 6.1 23:22:25 10° ESE 23:23:39 13° E 23:24:58 10° ENE visible
